This is the latest recevied weather packets stored in our database for station/object KA7EII-13. If no packets are shown the sender has not sent any weather packets the latest 10 day(s).
| Time | Temp. | Humidity | Pressure | Rain* | Wind** | Luminosity | Snow |
|---|---|---|---|---|---|---|---|
| 1777947669 | 17.78° C | 42% | 1095.3 hPa | 0 mm | - | 4 W/m² | - |
| 1777947365 | 17.78° C | 42% | 1095.5 hPa | 0 mm | - | 6 W/m² | - |
| 1777947062 | 18.33° C | 42% | 1095.4 hPa | 0 mm | - | 9 W/m² | - |
| 1777946762 | 18.33° C | 40% | 1095.7 hPa | 0 mm | - | 13 W/m² | - |
| 1777946459 | 18.89° C | 40% | 1095.4 hPa | 0 mm | - | 17 W/m² | - |
| 1777946156 | 18.89° C | 37% | 1095.4 hPa | 0 mm | - | 17 W/m² | - |
| 1777945853 | 18.89° C | 38% | 1095.4 hPa | 0 mm | - | 22 W/m² | - |
| 1777945549 | 19.44° C | 38% | 1095.4 hPa | 0 mm | - | 26 W/m² | - |
| 1777945247 | 20° C | 37% | 1095.3 hPa | 0 mm | - | 29 W/m² | - |
| 1777944944 | 20° C | 35% | 1095.4 hPa | 0 mm | - | 36 W/m² | - |
| 1777944641 | 20° C | 35% | 1095.3 hPa | 0 mm | - | 46 W/m² | - |
| 1777944339 | 20.56° C | 34% | 1095.4 hPa | 0 mm | - | 59 W/m² | - |
| 1777944036 | 20.56° C | 34% | 1095.7 hPa | 0 mm | - | 75 W/m² | - |
| 1777943731 | 20.56° C | 35% | 1095.4 hPa | 0 mm | - | 99 W/m² | - |
| 1777943429 | 21.11° C | 33% | 1095.4 hPa | 0 mm | - | 101 W/m² | - |
| 1777943124 | 21.11° C | 32% | 1095.3 hPa | 0 mm | - | 92 W/m² | - |
| 1777942821 | 21.11° C | 33% | 1095.5 hPa | 0 mm | - | 82 W/m² | - |
| 1777942517 | 20.56° C | 31% | 1095.8 hPa | 0 mm | - | 71 W/m² | - |
| 1777942215 | 20.56° C | 32% | 1095.9 hPa | 0 mm | - | 52 W/m² | - |
| 1777941912 | 20.56° C | 33% | 1095.9 hPa | 0 mm | - | 42 W/m² | - |
| 1777941609 | 20.56° C | 33% | 1095.9 hPa | 0 mm | - | 39 W/m² | - |
| 1777941306 | 20.56° C | 32% | 1095.7 hPa | 0 mm | - | 41 W/m² | - |
| 1777941003 | 20.56° C | 33% | 1095.8 hPa | 0 mm | - | 39 W/m² | - |
| 1777940698 | 20.56° C | 32% | 1095.3 hPa | 0 mm | - | 45 W/m² | - |
| 1777940397 | 20.56° C | 32% | 1095.5 hPa | 0 mm | - | 62 W/m² | - |
* Rain latest hour (hover to see other rain measurements)
** Current wind speed in m/s (hover to see current wind gust speed)